Regional Weather Roundup
Issued by NWS

Home | Current Version | Previous Version | Text Only | Print | Product List | Glossary Off
Versions: 1 2 3 4 5 6 7 8 9 10 11 12 13 14 15 16 17 18 19 20 21 22 23 24 25 26 27 28 29 30 31 32 33 34 35 36 37 38 39 40 41 42 43 44 45 46 47 48 49 50

973
ASUS44 KLIX 210505
RWRLA
LOUISIANA WEATHER ROUNDUP
NATIONAL WEATHER SERVICE NEW ORLEANS LA
1200 AM CDT TUE OCT 21 2014

NOTE: "FAIR" INDICATES FEW OR NO CLOUDS BELOW 12,000 FEET WITH NO
      SIGNIFICANT WEATHER AND/OR OBSTRUCTIONS TO VISIBILITY.
      SKY/WX - SKY CONDITION AND SIGNIFICANT WEATHER.
      TMP - AIR TEMPERATURE.    DP   - DEWPOINT TEMPERATURE.
      RH  - RELATIVE HUMIDITY.  PRES - PRESSURE.
      HX  - HEAT INDEX.         WCI  - WIND CHILL INDEX.

*  THESE STATIONS ARE NOT NWS OR FAA STATIONS AND ARE NOT UNDER
   NWS QUALITY CONTROL.

LAZ040-048-061>063-065-066-069-210600-
SOUTHEAST LOUISIANA

CITY           SKY/WX    TMP DP  RH WIND       PRES   REMARKS
N.O. AUDUBON     N/A     66  59  78 MISG        N/A
N.O. INTL ARPT PTCLDY    65  56  72 CALM      30.01F
N.O. LAKEFRONT CLEAR     72  57  59 NE12      30.02S
N.O. DOWNTOWN* FAIR      70  52  52 CALM      30.02S
SLIDELL        CLEAR     54  51  90 N3        30.02S
BATON ROUGE    CLEAR     59  54  83 N3        30.03F
BOOTHVILLE     CLEAR     71  63  75 N5        30.01S
BELLE CHASSE   PTCLDY    58  54  86 CALM      30.01S
BOGALUSA*        N/A     53  49  87 CALM      30.04F
NEW ROADS*     FAIR      58  56  94 CALM      30.03F
GONZALES*      FAIR      56  56 100 CALM      30.02S
HAMMOND*       CLEAR     54  52  94 NW3       30.04F
HOUMA*         CLEAR     58  56  95 CALM      30.01F
PORT FOURCHON* CLEAR     72  63  73 E6        30.04S

$$

LAZ041-044-053-054-210600-
SOUTHWEST LOUISIANA

CITY           SKY/WX    TMP DP  RH WIND       PRES   REMARKS
LAKE CHARLES   CLEAR     61  55  81 NE6       30.02F
LAFAYETTE      CLEAR     60  56  86 CALM      30.02F
PATTERSON      NOT AVBL
SALT POINT       N/A     64  60  87 CALM      30.01F
NEW IBERIA     CLEAR     64  56  75 NE8       30.02F
CHENAULT AIRPK CLEAR     62  56  83 NE3       30.02F

$$

LAZ027-028-210600-
CENTRAL LOUISIANA

CITY           SKY/WX    TMP DP  RH WIND       PRES   REMARKS
FORT POLK      CLEAR     56  54  93 NE5       30.03F
ALEXANDRIA INT CLEAR     57  55  93 CALM      30.03F
ALEXANDRIA     CLEAR     55  53  93 CALM      30.04F

$$

LAZ001-002-210600-
NORTHWEST LOUISIANA

CITY           SKY/WX    TMP DP  RH WIND       PRES   REMARKS
SHREVEPORT     CLEAR     59  55  87 CALM      30.05S
BARKSDALE AFB  CLEAR     58  56  91 CALM      30.05F
DTN SHREVEPORT CLEAR     59  55  87 CALM      30.05F

$$

LAZ014-016-210600-
NORTHEAST LOUISIANA

CITY           SKY/WX    TMP DP  RH WIND       PRES   REMARKS
MONROE         CLEAR     56  54  93 CALM      30.06S
TALLULAH       CLEAR     52  50  93 CALM      30.05S

$$




USA.gov is the U.S. government's official web portal to all federal, state and local government web resources and services.